Time,TemperatureF,DewpointF,PressureIn,WindDirection,WindDirectionDegrees,WindSpeedMPH,WindSpeedGustMPH,Humidity,HourlyPrecipIn,Conditions,Clouds,dailyrainin,SoftwareType,DateUTC
2013-02-21 00:02:00,23.0,12.0,30.07,WNW,300,16.0,21.0,62,0.00,,,-99.99,,2013-02-21 05:02:00,
2013-02-21 00:11:00,23.0,12.0,30.07,WNW,300,16.0,21.0,62,0.00,,,-99.99,,2013-02-21 05:11:00,
2013-02-21 00:21:00,23.0,12.0,30.07,NW,310,12.0,20.0,62,0.00,,,-99.99,,2013-02-21 05:21:00,
2013-02-21 00:31:00,23.0,12.0,30.07,NW,320,17.0,20.0,62,0.00,,,-99.99,,2013-02-21 05:31:00,
2013-02-21 00:41:00,23.0,12.0,30.07,NW,320,17.0,20.0,62,0.00,,,-99.99,,2013-02-21 05:41:00,
2013-02-21 00:51:00,23.0,10.0,30.08,NW,310,13.0,20.0,57,0.00,,,-99.99,,2013-02-21 05:51:00,
2013-02-21 01:01:00,23.0,10.0,30.08,NW,310,13.0,-999.0,57,-99.99,,,-99.99,,2013-02-21 06:01:00,
2013-02-21 01:11:00,23.0,10.0,30.08,NW,310,13.0,-999.0,57,-99.99,,,-99.99,,2013-02-21 06:11:00,
2013-02-21 01:21:00,23.0,12.0,30.07,NW,310,20.0,-999.0,62,-99.99,,,-99.99,,2013-02-21 06:21:00,
2013-02-21 01:31:00,23.0,12.0,30.07,NW,310,20.0,-999.0,62,-99.99,,,-99.99,,2013-02-21 06:31:00,
2013-02-21 01:42:00,23.0,12.0,30.07,NW,310,20.0,-999.0,62,-99.99,,,-99.99,,2013-02-21 06:42:00,
2013-02-21 01:51:00,23.0,12.0,30.07,NW,310,20.0,-999.0,62,0.00,,,-99.99,,2013-02-21 06:51:00,
2013-02-21 02:01:00,23.0,12.0,30.07,NW,310,20.0,23.0,62,0.00,,,-99.99,,2013-02-21 07:01:00,
2013-02-21 02:31:00,23.0,12.0,30.06,NW,320,20.0,25.0,62,0.00,,,-99.99,,2013-02-21 07:31:00,
2013-02-21 02:41:00,23.0,12.0,30.06,NW,320,20.0,25.0,62,0.00,,,-99.99,,2013-02-21 07:41:00,
2013-02-21 02:52:00,25.0,12.0,30.05,NW,320,17.0,22.0,58,0.00,,,-99.99,,2013-02-21 07:52:00,
2013-02-21 03:01:00,25.0,12.0,30.05,NW,320,17.0,22.0,58,0.00,,,-99.99,,2013-02-21 08:01:00,
2013-02-21 03:11:00,25.0,12.0,30.05,NW,320,17.0,22.0,58,0.00,,,-99.99,,2013-02-21 08:11:00,
2013-02-21 03:21:00,25.0,12.0,30.05,NW,320,17.0,22.0,58,0.00,,,-99.99,,2013-02-21 08:21:00,
2013-02-21 03:31:00,25.0,12.0,30.05,NW,320,17.0,22.0,58,0.00,,,-99.99,,2013-02-21 08:31:00,
2013-02-21 07:21:00,25.0,12.0,30.09,NNW,330,13.0,22.0,58,0.00,,,0.00,,2013-02-21 12:21:00,
2013-02-21 07:32:00,25.0,12.0,30.09,NNW,330,13.0,22.0,58,0.00,,,0.00,,2013-02-21 12:32:00,
2013-02-21 07:42:00,25.0,12.0,30.09,NNW,330,13.0,22.0,58,0.00,,,0.00,,2013-02-21 12:42:00,
2013-02-21 07:52:00,27.0,12.0,30.09,NW,320,10.0,18.0,54,0.00,,,0.00,,2013-02-21 12:52:00,
2013-02-21 08:01:00,27.0,12.0,30.09,NW,320,10.0,18.0,54,0.00,,,0.00,,2013-02-21 13:01:00,
2013-02-21 08:11:00,27.0,12.0,30.09,NW,320,10.0,18.0,54,0.00,,,-99.99,,2013-02-21 13:11:00,
2013-02-21 08:21:00,27.0,12.0,30.09,NW,320,10.0,18.0,54,0.00,,,-99.99,,2013-02-21 13:21:00,
2013-02-21 08:31:00,27.0,12.0,30.11,WNW,300,16.0,20.0,54,0.00,,,-99.99,,2013-02-21 13:31:00,
2013-02-21 08:41:00,27.0,12.0,30.11,WNW,300,16.0,20.0,54,0.00,,,-99.99,,2013-02-21 13:41:00,
2013-02-21 08:51:00,27.0,12.0,30.11,NW,320,16.0,24.0,54,0.00,,,-99.99,,2013-02-21 13:51:00,
2013-02-21 09:01:00,27.0,12.0,30.11,NW,320,16.0,24.0,54,0.00,,,-99.99,,2013-02-21 14:01:00,
2013-02-21 09:11:00,27.0,12.0,30.11,NW,320,16.0,24.0,54,0.00,,,-99.99,,2013-02-21 14:11:00,
2013-02-21 09:21:00,27.0,12.0,30.11,NW,320,16.0,24.0,54,0.00,,,-99.99,,2013-02-21 14:21:00,
2013-02-21 09:31:00,28.0,14.0,30.12,NW,320,20.0,23.0,54,0.00,,,-99.99,,2013-02-21 14:31:00,
2013-02-21 09:41:00,28.0,14.0,30.12,NW,320,20.0,23.0,54,0.00,,,-99.99,,2013-02-21 14:41:00,
2013-02-21 09:51:00,28.0,14.0,30.12,NNW,330,12.0,24.0,54,0.00,,,-99.99,,2013-02-21 14:51:00,
2013-02-21 10:01:00,28.0,14.0,30.12,NNW,330,12.0,24.0,54,0.00,,,-99.99,,2013-02-21 15:01:00,
2013-02-21 10:11:00,28.0,14.0,30.12,NNW,330,12.0,24.0,54,0.00,,,-99.99,,2013-02-21 15:11:00,
2013-02-21 10:21:00,28.0,14.0,30.13,WNW,300,14.0,27.0,54,0.00,,,-99.99,,2013-02-21 15:21:00,
2013-02-21 10:31:00,28.0,14.0,30.13,NW,320,16.0,28.0,54,0.00,,,-99.99,,2013-02-21 15:31:00,
2013-02-21 10:41:00,28.0,14.0,30.13,NW,320,16.0,28.0,54,0.00,,,-99.99,,2013-02-21 15:41:00,
2013-02-21 10:51:00,28.0,14.0,30.14,NNW,340,18.0,23.0,54,0.00,,,-99.99,,2013-02-21 15:51:00,
2013-02-21 11:01:00,28.0,14.0,30.14,NNW,340,18.0,23.0,54,0.00,,,-99.99,,2013-02-21 16:01:00,
2013-02-21 11:12:00,28.0,14.0,30.14,NNW,340,18.0,23.0,54,0.00,,,-99.99,,2013-02-21 16:12:00,
2013-02-21 11:21:00,28.0,14.0,30.14,NNW,340,18.0,23.0,54,0.00,,,-99.99,,2013-02-21 16:21:00,
2013-02-21 11:31:00,30.0,14.0,30.14,NW,320,17.0,25.0,50,0.00,,,-99.99,,2013-02-21 16:31:00,
2013-02-21 11:41:00,30.0,14.0,30.14,NW,320,17.0,25.0,50,0.00,,,-99.99,,2013-02-21 16:41:00,
2013-02-21 11:51:00,30.0,14.0,30.14,NW,320,16.0,23.0,50,0.00,,,-99.99,,2013-02-21 16:51:00,
2013-02-21 12:01:00,30.0,14.0,30.14,NW,320,16.0,23.0,50,0.00,,,-99.99,,2013-02-21 17:01:00,
2013-02-21 12:11:00,30.0,14.0,30.14,NW,320,16.0,23.0,50,0.00,,,-99.99,,2013-02-21 17:11:00,
2013-02-21 12:21:00,30.0,14.0,30.12,NW,310,16.0,24.0,50,0.00,,,-99.99,,2013-02-21 17:21:00,
2013-02-21 12:32:00,30.0,14.0,30.11,North,350,14.0,27.0,50,0.00,,,-99.99,,2013-02-21 17:32:00,
2013-02-21 12:41:00,30.0,14.0,30.11,North,350,14.0,27.0,50,0.00,,,-99.99,,2013-02-21 17:41:00,
2013-02-21 12:51:00,32.0,14.0,30.11,NW,310,16.0,23.0,46,0.00,,,-99.99,,2013-02-21 17:51:00,
2013-02-21 13:01:00,32.0,14.0,30.11,NW,310,16.0,23.0,46,0.00,,,-99.99,,2013-02-21 18:01:00,
2013-02-21 13:11:00,32.0,14.0,30.11,NW,310,16.0,23.0,46,0.00,,,-99.99,,2013-02-21 18:11:00,
2013-02-21 13:21:00,32.0,14.0,30.11,West,280,15.0,21.0,46,0.00,,,-99.99,,2013-02-21 18:21:00,
2013-02-21 13:31:00,32.0,14.0,30.10,WNW,290,20.0,22.0,46,0.00,,,-99.99,,2013-02-21 18:31:00,
2013-02-21 13:42:00,32.0,14.0,30.10,WNW,290,20.0,22.0,46,0.00,,,-99.99,,2013-02-21 18:42:00,
2013-02-21 13:51:00,32.0,14.0,30.11,NNW,340,16.0,28.0,46,0.00,,,-99.99,,2013-02-21 18:51:00,
2013-02-21 14:01:00,32.0,14.0,30.11,NNW,340,16.0,28.0,46,0.00,,,-99.99,,2013-02-21 19:01:00,
2013-02-21 14:11:00,32.0,14.0,30.11,NNW,340,16.0,28.0,46,0.00,,,-99.99,,2013-02-21 19:11:00,
2013-02-21 14:21:00,32.0,14.0,30.11,NNW,340,16.0,28.0,46,0.00,,,-99.99,,2013-02-21 19:21:00,
2013-02-21 14:31:00,32.0,14.0,30.12,NNW,330,20.0,23.0,46,0.00,,,-99.99,,2013-02-21 19:31:00,
2013-02-21 14:41:00,32.0,14.0,30.12,NNW,330,20.0,23.0,46,0.00,,,-99.99,,2013-02-21 19:41:00,
2013-02-21 14:51:00,34.0,16.0,30.11,NW,310,20.0,24.0,47,0.00,,,-99.99,,2013-02-21 19:51:00,
2013-02-21 15:01:00,34.0,16.0,30.11,NW,310,20.0,24.0,47,0.00,,,-99.99,,2013-02-21 20:01:00,
2013-02-21 15:11:00,34.0,16.0,30.11,NW,310,20.0,24.0,47,0.00,,,-99.99,,2013-02-21 20:11:00,
2013-02-21 15:21:00,34.0,16.0,30.11,NNW,340,16.0,24.0,47,0.00,,,-99.99,,2013-02-21 20:21:00,
2013-02-21 15:31:00,34.0,16.0,30.11,NNW,340,16.0,24.0,47,0.00,,,-99.99,,2013-02-21 20:31:00,
2013-02-21 15:41:00,34.0,16.0,30.11,NNW,340,16.0,24.0,47,0.00,,,-99.99,,2013-02-21 20:41:00,
2013-02-21 15:52:00,34.0,16.0,30.12,NW,320,16.0,22.0,47,0.00,,,-99.99,,2013-02-21 20:52:00,
2013-02-21 16:02:00,34.0,16.0,30.12,NW,320,16.0,22.0,47,0.00,,,-99.99,,2013-02-21 21:02:00,
2013-02-21 16:11:00,34.0,16.0,30.12,NW,320,16.0,22.0,47,0.00,,,-99.99,,2013-02-21 21:11:00,
2013-02-21 16:21:00,34.0,16.0,30.13,North,350,8.0,24.0,47,0.00,,,-99.99,,2013-02-21 21:21:00,
2013-02-21 16:31:00,34.0,16.0,30.13,NNW,340,12.0,24.0,47,0.00,,,-99.99,,2013-02-21 21:31:00,
2013-02-21 16:41:00,34.0,16.0,30.13,NNW,340,12.0,24.0,47,0.00,,,-99.99,,2013-02-21 21:41:00,
2013-02-21 16:51:00,34.0,16.0,30.13,NNW,340,16.0,25.0,47,0.00,,,-99.99,,2013-02-21 21:51:00,
2013-02-21 17:01:00,34.0,16.0,30.13,NNW,340,16.0,25.0,47,0.00,,,-99.99,,2013-02-21 22:01:00,
2013-02-21 17:11:00,34.0,16.0,30.13,NNW,340,16.0,25.0,47,0.00,,,-99.99,,2013-02-21 22:11:00,
2013-02-21 17:21:00,34.0,16.0,30.13,NNW,340,16.0,25.0,47,0.00,,,-99.99,,2013-02-21 22:21:00,
2013-02-21 17:31:00,32.0,16.0,30.14,NNW,330,12.0,-999.0,50,0.00,,,-99.99,,2013-02-21 22:31:00,
2013-02-21 17:41:00,32.0,16.0,30.14,NNW,330,12.0,20.0,50,0.00,,,-99.99,,2013-02-21 22:41:00,
2013-02-21 17:51:00,32.0,16.0,30.14,North,350,14.0,20.0,50,0.00,,,-99.99,,2013-02-21 22:51:00,
2013-02-21 18:01:00,32.0,16.0,30.14,North,350,14.0,20.0,50,0.00,,,-99.99,,2013-02-21 23:01:00,
2013-02-21 18:11:00,32.0,16.0,30.14,North,350,14.0,20.0,50,0.00,,,-99.99,,2013-02-21 23:11:00,
2013-02-21 18:21:00,32.0,18.0,30.17,NNW,340,12.0,18.0,54,0.00,,,-99.99,,2013-02-21 23:21:00,
2013-02-21 18:31:00,32.0,18.0,30.19,NW,310,10.0,17.0,54,0.00,,,-99.99,,2013-02-21 23:31:00,
2013-02-21 18:52:00,32.0,18.0,30.21,NNW,340,8.0,-999.0,54,0.00,,,-99.99,,2013-02-21 23:52:00,
2013-02-21 19:21:00,32.0,18.0,30.23,WNW,290,6.0,-999.0,54,0.00,,,-99.99,,2013-02-22 00:21:00,
2013-02-21 19:31:00,32.0,18.0,30.24,West,280,7.0,-999.0,54,0.00,,,-99.99,,2013-02-22 00:31:00,
2013-02-21 19:51:00,32.0,18.0,30.25,WNW,300,9.0,-999.0,54,0.00,,,-99.99,,2013-02-22 00:51:00,
2013-02-21 20:11:00,32.0,18.0,30.25,WNW,300,9.0,-999.0,54,0.00,,,-99.99,,2013-02-22 01:11:00,
2013-02-21 20:21:00,32.0,18.0,30.25,NNW,340,7.0,-999.0,54,0.00,,,-99.99,,2013-02-22 01:21:00,
2013-02-21 20:32:00,32.0,18.0,30.25,NNW,330,7.0,-999.0,54,0.00,,,-99.99,,2013-02-22 01:32:00,
2013-02-21 20:41:00,32.0,18.0,30.25,NNW,330,7.0,-999.0,54,0.00,,,-99.99,,2013-02-22 01:41:00,
2013-02-21 20:51:00,32.0,18.0,30.26,NNW,340,3.0,-999.0,54,0.00,,,-99.99,,2013-02-22 01:51:00,
2013-02-21 21:01:00,32.0,18.0,30.26,NNW,340,3.0,-999.0,54,0.00,,,-99.99,,2013-02-22 02:01:00,
2013-02-21 21:11:00,32.0,18.0,30.26,NNW,340,3.0,-999.0,54,0.00,,,-99.99,,2013-02-22 02:11:00,
2013-02-21 21:21:00,32.0,18.0,30.27,North,10,9.0,-999.0,54,0.00,,,-99.99,,2013-02-22 02:21:00,
2013-02-21 21:31:00,32.0,18.0,30.27,North,10,9.0,16.0,54,0.00,,,-99.99,,2013-02-22 02:31:00,
2013-02-21 21:41:00,32.0,18.0,30.27,North,10,9.0,16.0,54,0.00,,,-99.99,,2013-02-22 02:41:00,
2013-02-21 21:52:00,30.0,18.0,30.28,North,10,15.0,17.0,59,0.00,,,-99.99,,2013-02-22 02:52:00,
2013-02-21 22:01:00,30.0,18.0,30.28,North,10,15.0,17.0,59,0.00,,,-99.99,,2013-02-22 03:01:00,
2013-02-21 22:11:00,30.0,18.0,30.28,North,10,15.0,17.0,59,0.00,,,-99.99,,2013-02-22 03:11:00,
2013-02-21 22:21:00,30.0,18.0,30.28,North,360,12.0,-999.0,59,0.00,,,-99.99,,2013-02-22 03:21:00,
2013-02-21 22:31:00,30.0,18.0,30.28,NNE,20,3.0,-999.0,59,0.00,,,-99.99,,2013-02-22 03:31:00,
2013-02-21 22:41:00,30.0,18.0,30.28,NNE,20,3.0,-999.0,59,0.00,,,-99.99,,2013-02-22 03:41:00,
2013-02-21 22:51:00,30.0,18.0,30.29,NNE,20,9.0,-999.0,59,0.00,,,-99.99,,2013-02-22 03:51:00,
2013-02-21 23:01:00,30.0,18.0,30.29,NNE,20,9.0,-999.0,59,0.00,,,-99.99,,2013-02-22 04:01:00,
2013-02-21 23:11:00,30.0,18.0,30.29,NNE,20,9.0,-999.0,59,0.00,,,-99.99,,2013-02-22 04:11:00,
2013-02-21 23:21:00,30.0,18.0,30.30,NNE,20,13.0,-999.0,59,0.00,,,-99.99,,2013-02-22 04:21:00,
2013-02-21 23:31:00,28.0,18.0,30.30,North,10,6.0,-999.0,63,0.00,,,-99.99,,2013-02-22 04:31:00,
2013-02-21 23:41:00,28.0,18.0,30.30,North,10,6.0,-999.0,63,0.00,,,-99.99,,2013-02-22 04:41:00,
2013-02-21 23:51:00,28.0,18.0,30.30,North,10,9.0,-999.0,63,0.00,,,-99.99,,2013-02-22 04:51:00,